AFL240 USCC-USRR

Flight info

Callsign AFL240
Flight time 1h 22m
Altitude 35000
Route LERDA T797 NASDA A843 NH R717 BOMLI
Aircraft A320/M-V/N

Departure

Time 2026-05-01 09:51
Airport Kurchatov Chelyabinsk International Airport (USCC)

Arrival

Time 2026-05-01 11:13
Airport Surgut International Airport (USRR)
Time Latitude Longitude Altitude Speed Heading
2026-05-01 09:27 55.29883 61.50973 749 ft 0 kts 194°
2026-05-01 09:37 55.29894 61.50978 749 ft 4 kts 191°
2026-05-01 09:37 55.29921 61.50984 746 ft 4 kts 179°
2026-05-01 09:38 55.29966 61.50954 749 ft 3 kts 109°
2026-05-01 09:38 55.29967 61.50947 747 ft 0 kts 104°
2026-05-01 09:40 55.29967 61.50949 749 ft 2 kts 104°
2026-05-01 09:41 55.29962 61.50989 749 ft 2 kts 104°
2026-05-01 09:41 55.29932 61.51199 749 ft 7 kts 103°
2026-05-01 09:41 55.29929 61.51221 747 ft 0 kts 103°
2026-05-01 09:47 55.29928 61.51231 749 ft 4 kts 103°
2026-05-01 09:47 55.29914 61.51332 749 ft 15 kts 103°
2026-05-01 09:47 55.29900 61.51513 749 ft 14 kts 64°
2026-05-01 09:47 55.29965 61.51582 745 ft 10 kts 36°
2026-05-01 09:48 55.29978 61.51694 745 ft 12 kts 101°
2026-05-01 09:48 55.29954 61.51869 745 ft 16 kts 104°
2026-05-01 09:48 55.29928 61.52050 749 ft 15 kts 104°
2026-05-01 09:48 55.29905 61.52222 746 ft 14 kts 103°
2026-05-01 09:49 55.29884 61.52378 749 ft 12 kts 103°
2026-05-01 09:49 55.29917 61.52493 748 ft 11 kts 43°
2026-05-01 09:49 55.29977 61.52592 749 ft 12 kts 44°
2026-05-01 09:49 55.30046 61.52688 744 ft 11 kts 26°
2026-05-01 09:50 55.30125 61.52728 746 ft 11 kts 13°
2026-05-01 09:50 55.30196 61.52758 744 ft 9 kts 14°
2026-05-01 09:50 55.30251 61.52721 746 ft 10 kts 297°
2026-05-01 09:50 55.30258 61.52676 746 ft 2 kts 285°
2026-05-01 09:51 55.30287 61.52480 748 ft 49 kts 283°
2026-05-01 09:51 55.30434 61.51409 752 ft 128 kts 283°
2026-05-01 09:51 55.30687 61.49553 980 ft 168 kts 286°
2026-05-01 09:51 55.31010 61.47623 1914 ft 164 kts 302°
2026-05-01 09:52 55.31874 61.46388 2625 ft 167 kts 344°
2026-05-01 09:52 55.33054 61.46469 2907 ft 186 kts 21°
2026-05-01 09:52 55.34013 61.48059 3214 ft 199 kts 64°
2026-05-01 09:52 55.34034 61.50594 3564 ft 228 kts 103°
2026-05-01 09:53 55.33160 61.53061 3811 ft 249 kts 126°
2026-05-01 09:53 55.31928 61.55222 4633 ft 247 kts 136°
2026-05-01 09:53 55.30662 61.57265 5515 ft 251 kts 134°
2026-05-01 09:53 55.29380 61.59370 6488 ft 253 kts 128°
2026-05-01 09:54 55.28420 61.61941 6946 ft 266 kts 108°
2026-05-01 09:54 55.28123 61.65206 7630 ft 277 kts 85°
2026-05-01 09:54 55.28663 61.68420 8456 ft 287 kts 60°
2026-05-01 09:54 55.29992 61.71038 9518 ft 287 kts 34°
2026-05-01 09:55 55.31770 61.72544 10144 ft 290 kts 15°
2026-05-01 09:55 55.33745 61.73674 10361 ft 309 kts 17°
2026-05-01 09:55 55.35840 61.75116 10534 ft 335 kts 21°
2026-05-01 09:55 55.38074 61.76703 10858 ft 355 kts 26°
2026-05-01 09:56 55.40144 61.79175 11544 ft 362 kts 40°
2026-05-01 09:56 55.41936 61.82322 12036 ft 369 kts 45°
2026-05-01 09:56 55.43711 61.85478 12559 ft 366 kts 46°
2026-05-01 09:56 55.45492 61.88623 12757 ft 367 kts 44°
2026-05-01 09:57 55.47309 61.91744 13167 ft 370 kts 45°
2026-05-01 09:57 55.49154 61.94958 13580 ft 378 kts 47°
2026-05-01 09:57 55.51024 61.98240 14094 ft 383 kts 46°
2026-05-01 09:57 55.52950 62.01606 14656 ft 393 kts 47°
2026-05-01 09:58 55.54881 62.05021 15241 ft 395 kts 46°
2026-05-01 09:58 55.56811 62.08517 15713 ft 401 kts 49°
2026-05-01 09:58 55.58790 62.12062 16251 ft 408 kts 46°
2026-05-01 09:58 55.60811 62.15666 16793 ft 416 kts 47°
2026-05-01 09:59 55.62859 62.19288 17463 ft 414 kts 46°
2026-05-01 09:59 55.64891 62.22920 17921 ft 417 kts 47°
2026-05-01 09:59 55.66897 62.26514 18228 ft 413 kts 46°
2026-05-01 09:59 55.68929 62.30139 18373 ft 420 kts 48°
2026-05-01 10:00 55.71015 62.33859 18758 ft 427 kts 46°
2026-05-01 10:00 55.73111 62.37668 19263 ft 434 kts 49°
2026-05-01 10:00 55.75160 62.41563 19711 ft 429 kts 50°
2026-05-01 10:00 55.77131 62.45579 20136 ft 434 kts 53°
2026-05-01 10:01 55.79082 62.49720 20579 ft 442 kts 55°
2026-05-01 10:01 55.81043 62.53950 21129 ft 443 kts 54°
2026-05-01 10:01 55.82998 62.58088 21595 ft 442 kts 53°
2026-05-01 10:01 55.84988 62.62300 22003 ft 448 kts 52°
2026-05-01 10:02 55.87005 62.66568 22421 ft 451 kts 53°
2026-05-01 10:02 55.89046 62.70852 22897 ft 454 kts 54°
2026-05-01 10:02 55.91094 62.75106 23302 ft 454 kts 52°
2026-05-01 10:02 55.93159 62.79375 23676 ft 456 kts 53°
2026-05-01 10:03 55.95233 62.83678 24062 ft 458 kts 53°
2026-05-01 10:03 55.97311 62.88008 24424 ft 460 kts 53°
2026-05-01 10:03 55.99390 62.92373 24779 ft 462 kts 53°
2026-05-01 10:03 56.01448 62.96711 25104 ft 465 kts 53°
2026-05-01 10:04 56.03545 63.01143 25408 ft 469 kts 53°
2026-05-01 10:04 56.05651 63.05603 25740 ft 470 kts 53°
2026-05-01 10:04 56.07767 63.10099 26050 ft 473 kts 54°
2026-05-01 10:04 56.09891 63.14605 26378 ft 475 kts 54°
2026-05-01 10:05 56.12026 63.19144 26691 ft 478 kts 54°
2026-05-01 10:05 56.14171 63.23713 27001 ft 480 kts 54°
2026-05-01 10:05 56.16323 63.28305 27302 ft 482 kts 54°
2026-05-01 10:05 56.18481 63.32915 27591 ft 484 kts 54°
2026-05-01 10:06 56.20646 63.37557 27866 ft 486 kts 54°
2026-05-01 10:06 56.22789 63.42163 28131 ft 487 kts 55°
2026-05-01 10:06 56.24959 63.46847 28379 ft 488 kts 55°
2026-05-01 10:06 56.27152 63.51520 28610 ft 492 kts 52°
2026-05-01 10:07 56.29605 63.55869 28841 ft 497 kts 47°
2026-05-01 10:07 56.32128 63.60149 29084 ft 499 kts 47°
2026-05-01 10:07 56.34655 63.64448 29322 ft 501 kts 47°
2026-05-01 10:07 56.37187 63.68766 29643 ft 500 kts 48°
2026-05-01 10:08 56.42191 63.77349 30309 ft 499 kts 48°
2026-05-01 10:08 56.44701 63.81673 30594 ft 499 kts 48°
2026-05-01 10:08 56.47213 63.86012 30886 ft 500 kts 49°
2026-05-01 10:09 56.49727 63.90356 31173 ft 499 kts 49°
2026-05-01 10:09 56.52243 63.94704 31435 ft 500 kts 49°
2026-05-01 10:09 56.54761 63.99061 31703 ft 501 kts 49°
2026-05-01 10:09 56.57280 64.03434 31974 ft 502 kts 49°
2026-05-01 10:10 56.59801 64.07819 32232 ft 503 kts 49°
2026-05-01 10:10 56.62322 64.12211 32489 ft 503 kts 49°
2026-05-01 10:10 56.67342 64.20985 32969 ft 505 kts 49°
2026-05-01 10:11 56.69873 64.25420 33209 ft 504 kts 49°
2026-05-01 10:11 56.72415 64.29855 33427 ft 508 kts 49°
2026-05-01 10:11 56.74956 64.34307 33724 ft 507 kts 49°
2026-05-01 10:11 56.77491 64.38778 34002 ft 507 kts 49°
2026-05-01 10:12 56.80020 64.43261 34265 ft 507 kts 49°
2026-05-01 10:12 56.81692 64.46230 34436 ft 507 kts 49°
2026-05-01 10:12 56.87569 64.56676 34791 ft 509 kts 49°
2026-05-01 10:13 56.90089 64.61224 34784 ft 508 kts 52°
2026-05-01 10:13 56.94298 64.71426 34783 ft 501 kts 61°
2026-05-01 10:14 57.00271 64.87186 34784 ft 503 kts 60°
2026-05-01 10:14 57.04247 64.97717 34784 ft 502 kts 61°
2026-05-01 10:15 57.08170 65.08201 34792 ft 499 kts 61°
2026-05-01 10:15 57.12105 65.18756 34787 ft 501 kts 61°
2026-05-01 10:16 57.16071 65.29293 34792 ft 499 kts 57°
2026-05-01 10:17 57.23512 65.43025 34820 ft 503 kts 47°
2026-05-01 10:17 57.31168 65.56499 34786 ft 511 kts 47°
2026-05-01 10:18 57.38904 65.70141 34784 ft 512 kts 47°
2026-05-01 10:19 57.44053 65.79274 34785 ft 512 kts 47°
2026-05-01 10:19 57.49141 65.88385 34750 ft 512 kts 47°
2026-05-01 10:20 57.56860 66.02150 34765 ft 514 kts 46°
2026-05-01 10:20 57.62037 66.11412 34782 ft 515 kts 47°
2026-05-01 10:21 57.68410 66.27066 34789 ft 495 kts 70°
2026-05-01 10:22 57.72633 66.44721 34795 ft 498 kts 72°
2026-05-01 10:23 57.76845 66.62499 34793 ft 497 kts 72°
2026-05-01 10:23 57.81019 66.80297 34788 ft 497 kts 72°
2026-05-01 10:24 57.86524 67.04026 34787 ft 498 kts 72°
2026-05-01 10:25 57.92015 67.27910 34792 ft 498 kts 72°
2026-05-01 10:26 57.94724 67.39797 34794 ft 498 kts 72°
2026-05-01 10:27 58.00150 67.63824 34786 ft 498 kts 72°
2026-05-01 10:28 58.04188 67.81904 34801 ft 499 kts 72°
2026-05-01 10:28 58.08186 67.99982 34797 ft 500 kts 72°
2026-05-01 10:29 58.12186 68.18177 34801 ft 501 kts 70°
2026-05-01 10:30 58.15944 68.29378 34803 ft 511 kts 51°
2026-05-01 10:30 58.21228 68.38323 34804 ft 514 kts 40°
2026-05-01 10:31 58.32323 68.55458 34805 ft 514 kts 40°
2026-05-01 10:32 58.40629 68.68378 34821 ft 514 kts 40°
2026-05-01 10:33 58.51659 68.85699 34835 ft 515 kts 40°
2026-05-01 10:34 58.59957 68.98815 34844 ft 516 kts 40°
2026-05-01 10:34 58.65490 69.07587 34854 ft 516 kts 40°
2026-05-01 10:35 58.73727 69.20735 34884 ft 515 kts 40°
2026-05-01 10:35 58.79237 69.29570 34925 ft 516 kts 40°
2026-05-01 10:36 58.87512 69.42934 34938 ft 517 kts 40°
2026-05-01 10:37 58.92975 69.51789 34931 ft 516 kts 40°
2026-05-01 10:37 59.01213 69.65255 34929 ft 517 kts 40°
2026-05-01 10:38 59.06705 69.74256 34931 ft 516 kts 40°
2026-05-01 10:38 59.12191 69.83263 34927 ft 516 kts 40°
2026-05-01 10:39 59.17627 69.92263 34922 ft 516 kts 40°
2026-05-01 10:39 59.23092 70.01357 34923 ft 517 kts 40°
2026-05-01 10:40 59.28564 70.10465 34923 ft 517 kts 40°
2026-05-01 10:40 59.34027 70.19614 34932 ft 517 kts 40°
2026-05-01 10:41 59.39445 70.28742 34926 ft 517 kts 40°
2026-05-01 10:42 59.47616 70.42596 34933 ft 518 kts 40°
2026-05-01 10:42 59.53042 70.51943 34948 ft 519 kts 40°
2026-05-01 10:43 59.58451 70.61384 34945 ft 519 kts 41°
2026-05-01 10:43 59.63816 70.70793 34949 ft 519 kts 41°
2026-05-01 10:44 59.69210 70.80261 34956 ft 518 kts 41°
2026-05-01 10:44 59.74610 70.89746 34955 ft 519 kts 40°
2026-05-01 10:45 59.80008 70.99236 34955 ft 518 kts 41°
2026-05-01 10:45 59.85349 71.08738 34961 ft 519 kts 41°
2026-05-01 10:46 59.90718 71.18339 34965 ft 519 kts 41°
2026-05-01 10:46 59.96087 71.27968 34971 ft 519 kts 41°
2026-05-01 10:47 60.00537 71.35977 34981 ft 518 kts 41°
2026-05-01 10:47 60.05877 71.45640 34974 ft 518 kts 40°
2026-05-01 10:47 60.09422 71.52071 34103 ft 524 kts 40°
2026-05-01 10:48 60.12134 71.56996 33321 ft 526 kts 41°
2026-05-01 10:48 60.13964 71.60326 32819 ft 526 kts 41°
2026-05-01 10:48 60.16636 71.65207 32080 ft 526 kts 41°
2026-05-01 10:48 60.19340 71.70159 31329 ft 526 kts 41°
2026-05-01 10:49 60.22039 71.75119 30576 ft 525 kts 41°
2026-05-01 10:49 60.24731 71.80074 29821 ft 525 kts 41°
2026-05-01 10:49 60.27417 71.85028 29084 ft 522 kts 41°
2026-05-01 10:49 60.30957 71.91576 28086 ft 520 kts 41°
2026-05-01 10:50 60.33611 71.96500 27442 ft 515 kts 42°
2026-05-01 10:50 60.35370 71.99774 27332 ft 504 kts 42°
2026-05-01 10:50 60.37870 72.04423 27184 ft 487 kts 42°
2026-05-01 10:50 60.40342 72.09026 26797 ft 480 kts 42°
2026-05-01 10:51 60.42778 72.13575 26312 ft 474 kts 42°
2026-05-01 10:51 60.45188 72.18082 25808 ft 469 kts 42°
2026-05-01 10:51 60.47572 72.22554 25306 ft 465 kts 42°
2026-05-01 10:51 60.49935 72.26996 24802 ft 461 kts 42°
2026-05-01 10:52 60.53026 72.32825 24136 ft 455 kts 42°
2026-05-01 10:52 60.54558 72.35720 23791 ft 452 kts 42°
2026-05-01 10:52 60.56846 72.40054 23263 ft 449 kts 42°
2026-05-01 10:52 60.59119 72.44368 22779 ft 445 kts 42°
2026-05-01 10:53 60.61372 72.48648 22302 ft 441 kts 42°
2026-05-01 10:53 60.63601 72.52891 21826 ft 437 kts 42°
2026-05-01 10:53 60.65810 72.57109 21359 ft 433 kts 42°
2026-05-01 10:53 60.67999 72.61294 20874 ft 430 kts 42°
2026-05-01 10:54 60.70168 72.65448 20505 ft 424 kts 42°
2026-05-01 10:54 60.72285 72.69517 20345 ft 412 kts 42°
2026-05-01 10:54 60.74330 72.73454 19973 ft 407 kts 42°
2026-05-01 10:54 60.76265 72.77649 19556 ft 405 kts 54°
2026-05-01 10:55 60.77638 72.82613 19158 ft 399 kts 71°
2026-05-01 10:55 60.78276 72.88052 18752 ft 389 kts 90°
2026-05-01 10:55 60.78123 72.93468 18340 ft 376 kts 108°
2026-05-01 10:55 60.77261 72.98405 17921 ft 363 kts 124°
2026-05-01 10:56 60.75837 73.02539 17482 ft 350 kts 140°
2026-05-01 10:56 60.74015 73.05684 17062 ft 338 kts 154°
2026-05-01 10:56 60.71947 73.07759 16656 ft 326 kts 167°
2026-05-01 10:56 60.69809 73.08746 16264 ft 314 kts 180°
2026-05-01 10:57 60.67658 73.08710 15807 ft 306 kts 192°
2026-05-01 10:57 60.65613 73.07706 15390 ft 300 kts 203°
2026-05-01 10:57 60.63755 73.05844 14998 ft 298 kts 214°
2026-05-01 10:57 60.62062 73.03403 14657 ft 296 kts 218°
2026-05-01 10:58 60.60667 73.00534 14460 ft 276 kts 233°
2026-05-01 10:58 60.59718 72.97284 14328 ft 259 kts 242°
2026-05-01 10:58 60.59112 72.94002 14206 ft 244 kts 250°
2026-05-01 10:58 60.58785 72.90673 14059 ft 239 kts 258°
2026-05-01 10:59 60.58736 72.87287 13795 ft 240 kts 267°
2026-05-01 10:59 60.58977 72.83928 13548 ft 242 kts 276°
2026-05-01 10:59 60.59513 72.80658 13294 ft 246 kts 285°
2026-05-01 10:59 60.60350 72.77561 13048 ft 253 kts 296°
2026-05-01 11:00 60.61477 72.74771 12794 ft 259 kts 306°
2026-05-01 11:00 60.62890 72.72398 12554 ft 268 kts 318°
2026-05-01 11:00 60.64519 72.70616 12300 ft 273 kts 330°
2026-05-01 11:00 60.66355 72.69457 12137 ft 280 kts 342°
2026-05-01 11:01 60.68313 72.69064 12131 ft 287 kts 355°
2026-05-01 11:01 60.70313 72.69530 12134 ft 292 kts 10°
2026-05-01 11:01 60.72244 72.70880 12135 ft 295 kts 24°
2026-05-01 11:01 60.74034 72.73036 12059 ft 313 kts 32°
2026-05-01 11:02 60.76021 72.75398 11807 ft 342 kts 22°
2026-05-01 11:02 60.78245 72.77110 11513 ft 340 kts 15°
2026-05-01 11:02 60.80524 72.78363 11100 ft 339 kts 11°
2026-05-01 11:02 60.82793 72.79381 10661 ft 338 kts
2026-05-01 11:03 60.85081 72.80362 10224 ft 333 kts 11°
2026-05-01 11:03 60.87326 72.81385 9989 ft 320 kts 13°
2026-05-01 11:03 60.89433 72.82407 9674 ft 306 kts 15°
2026-05-01 11:03 60.91518 72.83439 9442 ft 310 kts 13°
2026-05-01 11:04 60.93597 72.84490 9103 ft 304 kts 14°
2026-05-01 11:04 60.95640 72.85511 8714 ft 297 kts 13°
2026-05-01 11:04 60.97635 72.86541 8313 ft 294 kts 14°
2026-05-01 11:04 60.99587 72.87575 7949 ft 293 kts 15°
2026-05-01 11:05 61.01551 72.88635 7588 ft 291 kts 15°
2026-05-01 11:05 61.03501 72.89693 7227 ft 288 kts 15°
2026-05-01 11:05 61.05434 72.90735 6872 ft 285 kts 15°
2026-05-01 11:05 61.07348 72.91763 6502 ft 285 kts 15°
2026-05-01 11:06 61.09261 72.92786 6192 ft 279 kts 15°
2026-05-01 11:06 61.11156 72.93746 5819 ft 282 kts 14°
2026-05-01 11:06 61.13010 72.94691 5455 ft 278 kts 15°
2026-05-01 11:07 61.16708 72.96673 4744 ft 272 kts 16°
2026-05-01 11:07 61.18525 72.97648 4415 ft 268 kts 16°
2026-05-01 11:07 61.20322 72.98620 4081 ft 265 kts 17°
2026-05-01 11:07 61.22092 72.99589 3750 ft 260 kts 16°
2026-05-01 11:08 61.23827 73.00528 3424 ft 255 kts 17°
2026-05-01 11:08 61.25533 73.01440 3105 ft 251 kts 17°
2026-05-01 11:08 61.28813 73.03186 2496 ft 241 kts 17°
2026-05-01 11:09 61.30427 73.04051 2222 ft 236 kts 17°
2026-05-01 11:09 61.31911 73.05266 2148 ft 224 kts 33°
2026-05-01 11:09 61.33067 73.07269 2153 ft 211 kts 50°
2026-05-01 11:10 61.34220 73.12436 2118 ft 186 kts 83°
2026-05-01 11:10 61.34272 73.14967 2101 ft 164 kts 90°
2026-05-01 11:10 61.34286 73.17219 2035 ft 150 kts 90°
2026-05-01 11:10 61.34297 73.19316 1902 ft 141 kts 90°
2026-05-01 11:11 61.34307 73.21292 1727 ft 137 kts 90°
2026-05-01 11:11 61.34317 73.23261 1550 ft 136 kts 92°
2026-05-01 11:11 61.34336 73.25234 1371 ft 136 kts 93°
2026-05-01 11:11 61.34331 73.27206 1206 ft 136 kts 94°
2026-05-01 11:12 61.34328 73.29173 1014 ft 136 kts 92°
2026-05-01 11:12 61.34349 73.31140 824 ft 135 kts 92°
2026-05-01 11:12 61.34358 73.33094 654 ft 136 kts 92°
2026-05-01 11:12 61.34370 73.35026 435 ft 132 kts 94°
2026-05-01 11:13 61.34378 73.36941 318 ft 134 kts 89°
2026-05-01 11:13 61.34365 73.38832 195 ft 120 kts 85°
2026-05-01 11:13 61.34389 73.40221 201 ft 71 kts 90°
2026-05-01 11:13 61.34386 73.40912 210 ft 26 kts 91°
2026-05-01 11:14 61.34387 73.41192 213 ft 18 kts 89°
2026-05-01 11:14 61.34390 73.41444 214 ft 18 kts 89°
2026-05-01 11:14 61.34389 73.41601 212 ft 5 kts 99°
2026-05-01 11:14 61.34350 73.41676 212 ft 14 kts 159°
2026-05-01 11:15 61.34256 73.41687 208 ft 12 kts 179°
2026-05-01 11:15 61.34194 73.41636 208 ft 9 kts 239°
2026-05-01 11:15 61.34185 73.41418 208 ft 18 kts 268°
2026-05-01 11:15 61.34183 73.41191 208 ft 13 kts 269°
2026-05-01 11:16 61.34182 73.41029 208 ft 11 kts 269°
2026-05-01 11:16 61.34182 73.40834 208 ft 13 kts 270°
2026-05-01 11:16 61.34159 73.40707 208 ft 8 kts 205°
2026-05-01 11:16 61.34115 73.40701 210 ft 4 kts 180°
2026-05-01 11:17 61.34098 73.40701 208 ft 1 kts 180°
2026-05-01 11:17 61.34093 73.40701 208 ft 0 kts 180°